User: anonymous   Login
Location: Wawayanda State Park
(41.1833°N, 74.4333°W)
Time: 00:07:06
(UTC-04:00)
Language:

Landsat 7 - Orbit

View from above orbital plane
View from above orbital plane
View from above satellite
View from above satellite

Ground track
Ground track

The orbit data is extracted from the following two-line orbital elements,

1 25682U 99020A   18170.23104521 +.00000069 +00000-0 +25372-4 0  9996
2 25682 098.1710 240.4040 0001170 095.4826 264.6520 14.57132250020049
Epoch (UTC): 19 June 2018 05:32:42
Eccentricity: 0.0001170
inclination: 98.1710°
perigee height: 701 km
apogee height: 703 km
right ascension of ascending node: 240.4040°
argument of perigee: 95.4826°
revolutions per day: 14.57132250
mean anomaly at epoch: 264.6520°
orbit number at epoch: 2004

The dashed part of the orbit path shows where the satellite is in the earth's shadow,  

DLR